Terminal Aerodrome Forecast
Issued by NWS Jackson, KY

Home | Current Version | Previous Version | Text Only | Print | Product List | Glossary On
Versions: 1 2 3 4 5 6 7 8 9 10 11 12 13 14 15 16 17 18
000
FTUS43 KJKL 170100 AAA
TAFJKL
TAF AMD
KJKL 170124Z 1701/1724 VRB03KT 6SM BR SCT040
     FM170400 00000KT 3SM BR SCT004 BKN015
     FM170700 00000KT 1/4SM FG VV002
     FM171230 VRB03KT 2SM BR SCT004 BKN008 OVC020
     FM171400 VRB05KT P6SM SCT008 BKN020
     FM171700 33005KT P6SM SCT035=

USA.gov is the U.S. government's official web portal to all federal, state and local government web resources and services.